sat.trackr.live / text

‹ back to catalog

KUIPER-00144

NORAD 67133 · 2025-301A

PAYLOAD ACTIVE UNKNOWN

§ Identity

Operator
Country
US
Launch date
2025-12-16
Launch site
AFETR
Launch vehicle
Mass (kg)
RCS (m²)

External: N2YO · Heavens-Above · Gunter

§ Orbital elements

Epoch: 2026-05-25T04:31:41.651328Z

Period
97.53 min
Inclination
51.9010°
Eccentricity
0.0001114
Mean motion
14.76425282 rev/d
Perigee alt
639.8 km
Apogee alt
641.4 km
Semi-major
7,018.8 km
B*
3.3489e-4
RAAN
77.0638°
Arg perigee
54.4806°
Mean anomaly
305.6258°
Rev number
2,520

§ Raw data

KUIPER-001441 67133U 25301A   26145.18867652  .00002136  00000+0  33489-3 0  99932 67133  51.9010  77.0638 0001114  54.4806 305.6258 14.76425282 25202

JSON: /api/v1/satellites/67133 · /tle

For live sub-satellite position, see the globe view (requires WebGL).

§ Visibility from observer

Set your observer location to see the next 7 days of passes ≥ 10°. The values pass through the URL so the page stays shareable.

No JS? Fill the form by hand. The geolocation button needs JavaScript.